M8SEY-13 Weather Reports


time (UTC)temp
F
wind
direction
speed
knots
gust
knots
rain 1hr
in
rain 24hr
in
rain mn
in
humidity
%
barometer
mb
20260508080516 50 0.0 0.9 0.00 0.01 0.00 86 1016.5
20260508075516 50 0.0 0.9 0.00 0.01 0.00 86 1016.4
20260508074516 49 0.0 1.7 0.00 0.01 0.00 86 1016.4
20260508073516 49 0.0 1.7 0.00 0.01 0.00 87 1016.3
20260508072516 49 113 0.9 1.7 0.00 0.01 0.00 87 1016.3
20260508071516 49 0.0 1.7 0.00 0.01 0.00 88 1016.2
20260508070516 49 0.0 1.7 0.00 0.01 0.00 89 1016.2
20260508065516 48 0.0 0.9 0.00 0.01 0.00 89 1016.1
20260508064516 48 135 0.9 2.6 0.00 0.01 0.00 90 1016.0
20260508063556 48 0.0 0.9 0.00 0.01 0.00 91 1015.9
20260508062536 47 0.0 2.6 0.00 0.01 0.00 92 1015.8
20260508061516 47 0.0 1.7 0.00 0.01 0.00 92 1015.8
20260508060516 46 0.0 0.0 0.00 0.01 0.00 93 1015.6
20260508055516 46 0.0 0.9 0.00 0.01 0.00 93 1015.5
20260508054516 45 0.0 0.9 0.00 0.01 0.00 93 1015.6
20260508053536 45 0.0 0.9 0.00 0.01 0.00 93 1015.5
20260508052516 45 0.0 0.9 0.00 0.01 0.00 93 1015.4
20260508051516 45 0.0 0.0 0.00 0.01 0.00 93 1015.4
20260508050516 44 0.0 0.0 0.00 0.01 0.00 93 1015.3
20260508045516 45 0.0 0.9 0.00 0.01 0.00 93 1015.3
20260508044516 44 0.0 1.7 0.00 0.01 0.00 93 1015.2
20260508043556 44 0.0 0.9 0.00 0.01 0.00 93 1015.2
20260508042516 44 0.0 0.9 0.00 0.01 0.00 93 1015.2
20260508041516 44 0.0 0.9 0.00 0.01 0.00 94 1015.2
20260508040516 44 0.0 0.9 0.00 0.01 0.00 94 1015.3
20260508035516 44 0.0 0.0 0.00 0.01 0.00 93 1015.3
20260508034516 43 0.0 0.0 0.00 0.01 0.00 93 1015.3
20260508033516 43 0.0 0.0 0.00 0.01 0.00 93 1015.3
20260508032516 43 0.0 0.0 0.00 0.01 0.00 93 1015.3
20260508031516 43 0.0 0.0 0.00 0.01 0.00 92 1015.4
20260508030516 43 0.0 0.0 0.00 0.01 0.00 92 1015.4
20260508025516 43 0.0 0.0 0.00 0.01 0.00 92 1015.2
20260508024516 44 0.0 0.0 0.00 0.01 0.00 92 1015.2
20260508023516 44 0.0 0.9 0.00 0.01 0.00 92 1015.2
20260508022516 44 0.0 0.0 0.00 0.01 0.00 91 1015.2
20260508021517 44 0.0 0.0 0.00 0.01 0.00 91 1015.2
20260508020536 44 0.0 0.0 0.00 0.01 0.00 91 1015.1
20260508015516 45 0.0 0.0 0.00 0.01 0.00 91 1015.1
20260508014536 45 0.0 0.9 0.00 0.01 0.00 91 1015.1
20260508013516 45 0.0 0.9 0.00 0.01 0.00 90 1015.1
20260508012516 45 0.0 0.0 0.00 0.01 0.00 90 1014.8
20260508011515 46 0.0 0.0 0.00 0.01 0.00 90 1014.8
20260508010516 46 0.0 0.0 0.00 0.01 0.00 90 1015.1
20260508005516 46 0.0 0.9 0.00 0.01 0.00 91 1015.0
20260508004516 46 0.0 2.6 0.00 0.01 0.00 91 1015.0
20260508003516 46 0.0 0.9 0.00 0.01 0.00 91 1015.0
20260508002516 46 0.0 0.9 0.00 0.01 0.00 91 1015.0
20260508001536 46 0.0 0.0 0.00 0.01 0.00 91 1015.1
20260508000515 47 0.0 0.9 0.00 0.01 0.00 91 1015.1
20260507235515 47 0.0 0.0 0.00 0.01 0.00 90 1015.2
20260507234516 47 0.0 0.0 0.00 0.01 0.00 90 1015.2
20260507233516 47 0.0 0.0 0.00 0.01 0.00 90 1015.2
20260507232515 48 0.0 0.9 0.00 0.01 0.00 90 1015.2
20260507231516 47 0.0 0.9 0.00 0.01 0.00 91 1015.2
20260507230516 47 0.0 0.9 0.00 0.01 0.00 91 1015.1
20260507225515 47 0.0 0.0 0.00 0.01 0.01 91 1015.2
20260507224515 47 0.0 0.9 0.00 0.01 0.01 91 1015.1
20260507223515 47 0.0 0.0 0.00 0.01 0.01 91 1015.0
20260507222535 47 0.0 0.0 0.00 0.01 0.01 90 1015.0
20260507221535 47 0.0 0.9 0.00 0.01 0.01 90 1014.9
20260507220515 47 0.0 0.9 0.00 0.01 0.01 89 1014.8
20260507215515 48 0.0 0.0 0.00 0.01 0.01 89 1014.8
20260507214515 48 0.0 0.0 0.00 0.01 0.01 88 1014.8
20260507213515 49 0.0 0.0 0.00 0.01 0.01 87 1014.8
20260507212515 49 0.0 0.0 0.00 0.01 0.01 86 1014.8
20260507211515 49 0.0 0.9 0.00 0.01 0.01 86 1014.8
20260507210515 50 0.0 0.9 0.00 0.01 0.01 85 1014.7
20260507205515 50 0.0 0.9 0.00 0.01 0.01 85 1014.5
20260507204515 51 0.0 0.9 0.00 0.01 0.01 85 1014.5
20260507203515 51 0.0 0.9 0.00 0.01 0.01 85 1014.5
20260507202515 52 0.0 0.0 0.00 0.01 0.01 83 1014.3
20260507201535 52 0.0 0.0 0.00 0.01 0.01 82 1014.3
20260507200515 53 0.0 0.9 0.00 0.01 0.01 82 1014.2
20260507195515 53 0.0 0.9 0.00 0.01 0.01 81 1014.1
20260507194515 53 0.0 0.9 0.00 0.01 0.01 80 1014.1
20260507193517 54 0.0 0.9 0.00 0.01 0.01 80 1014.0
20260507192517 54 113 0.9 1.7 0.00 0.01 0.01 80 1014.0
20260507191517 54 0.0 1.7 0.00 0.01 0.01 81 1014.0
20260507190517 55 0.0 0.0 0.00 0.01 0.01 79 1013.9
20260507185537 56 0.0 0.9 0.00 0.01 0.01 78 1013.9
20260507184515 56 0.0 0.0 0.01 0.01 0.01 77 1013.9
20260507183557 55 0.0 0.0 0.01 0.01 0.01 82 1013.9
20260507182557 55 0.0 0.0 0.01 0.01 0.01 80 1013.9
20260507181517 54 0.0 0.0 0.01 0.01 0.01 79 1013.8
20260507180517 54 0.0 0.0 0.01 0.01 0.01 77 1013.7
20260507175517 55 203 0.9 1.7 0.01 0.01 0.01 76 1013.6
20260507174517 56 0.0 0.9 0.00 0.00 0.00 72 1013.7
20260507173517 56 0.0 1.7 0.00 0.00 0.00 71 1013.7
20260507172517 56 0.0 1.7 0.00 0.00 0.00 68 1013.6
20260507171517 57 203 0.9 2.6 0.00 0.00 0.00 65 1013.6
20260507170517 57 203 0.9 3.5 0.00 0.00 0.00 64 1013.6
20260507165537 58 225 0.9 3.5 0.00 0.00 0.00 64 1013.6
20260507164537 58 203 1.7 5.2 0.00 0.00 0.00 63 1013.7
20260507163517 58 135 1.7 5.2 0.00 0.00 0.00 62 1013.7
20260507162517 58 135 2.6 7.0 0.00 0.00 0.00 61 1013.7
20260507161517 58 158 1.7 4.3 0.00 0.00 0.00 62 1013.7
20260507160537 58 113 1.7 5.2 0.00 0.00 0.00 61 1013.6
20260507155517 58 113 1.7 5.2 0.00 0.00 0.00 60 1013.6
20260507154537 59 203 1.7 5.2 0.00 0.00 0.00 60 1013.7
20260507153517 59 158 1.7 6.1 0.00 0.00 0.00 58 1013.7
20260507152617 59 135 2.6 7.8 0.00 0.00 0.00 57 1013.7
20260507151517 60 135 2.6 7.8 0.00 0.00 0.00 57 1013.8
20260507150517 59 113 1.7 6.1 0.00 0.00 0.00 60 1013.8
20260507145517 58 135 1.7 6.1 0.00 0.00 0.00 62 1013.8
20260507144517 58 135 1.7 6.1 0.00 0.00 0.00 61 1014.1
20260507143537 58 135 1.7 5.2 0.00 0.00 0.00 61 1014.1
20260507142537 58 225 1.7 5.2 0.00 0.00 0.00 59 1014.2
20260507141517 58 135 2.6 8.7 0.00 0.00 0.00 58 1014.3
20260507140516 59 135 2.6 7.0 0.00 0.00 0.00 58 1014.3
20260507135517 59 135 2.6 7.0 0.00 0.00 0.00 60 1014.3
20260507134516 59 135 4.3 9.6 0.00 0.00 0.00 59 1014.3
20260507133517 60 113 1.7 5.2 0.00 0.00 0.00 60 1014.4
20260507132516 60 113 3.5 8.7 0.00 0.00 0.00 59 1014.4
20260507131516 59 203 3.5 8.7 0.00 0.00 0.00 63 1014.5
20260507130517 58 113 2.6 9.6 0.00 0.00 0.00 65 1014.7
20260507125516 58 135 2.6 6.1 0.00 0.00 0.00 64 1014.8
20260507124516 58 113 3.5 12.2 0.00 0.00 0.00 64 1014.7
20260507123516 58 135 2.6 6.1 0.00 0.00 0.00 65 1014.7
20260507122517 57 135 3.5 7.8 0.00 0.00 0.00 64 1014.8
20260507121517 57 113 2.6 7.0 0.00 0.00 0.00 64 1014.8
20260507120517 57 180 2.6 7.8 0.00 0.00 0.00 65 1014.8
20260507115517 56 203 3.5 9.6 0.00 0.00 0.00 68 1014.9
20260507114516 56 113 2.6 7.0 0.00 0.00 0.00 68 1014.9
20260507113536 56 203 3.5 7.8 0.00 0.00 0.00 68 1014.9
20260507112516 55 113 1.7 5.2 0.00 0.00 0.00 70 1015.1
20260507111517 54 203 3.5 7.0 0.00 0.00 0.00 69 1015.0
20260507110516 53 113 2.6 8.7 0.00 0.00 0.00 71 1015.1
20260507105536 53 113 2.6 7.0 0.00 0.00 0.00 73 1015.2
20260507104516 52 113 2.6 6.1 0.00 0.00 0.00 75 1015.2
20260507103556 51 113 2.6 5.2 0.00 0.00 0.00 77 1015.5
20260507102516 51 135 2.6 7.0 0.00 0.00 0.00 78 1015.5
20260507101517 50 113 2.6 6.1 0.00 0.00 0.00 79 1015.5
20260507100516 50 135 2.6 6.1 0.00 0.00 0.00 80 1015.4
20260507095516 49 135 1.7 6.1 0.00 0.00 0.00 81 1015.5
20260507094516 49 113 1.7 7.0 0.00 0.00 0.00 82 1015.5
20260507093516 48 113 1.7 6.1 0.00 0.00 0.00 83 1015.4
20260507092516 48 135 1.7 4.3 0.00 0.00 0.00 84 1015.4
20260507091516 48 135 1.7 4.3 0.00 0.00 0.00 84 1015.4
20260507090516 47 113 1.7 5.2 0.00 0.00 0.00 85 1015.3
20260507085516 47 135 1.7 6.1 0.00 0.00 0.00 85 1015.5
20260507084516 47 135 1.7 3.5 0.00 0.00 0.00 85 1015.4
20260507083516 47 135 1.7 4.3 0.00 0.00 0.00 85 1015.4
20260507082516 46 135 1.7 6.1 0.00 0.00 0.00 86 1015.3
20260507081516 46 135 1.7 4.3 0.00 0.00 0.00 86 1015.3